Tupelo, MS

12:41 AM CDT on May 23, 2018 (GMT -0500)
Tupelo Regional

Weather History for KTUP - January, 2012

Change the Weather History Date:

Tuesday, January 10, 2012

  Actual Average Record
Temperature  
Mean Temperature 58 °F 41 °F  
Max Temperature 63 °F 51 °F 77 °F (1949)
Min Temperature 52 °F 32 °F 0 °F (1962)
Degree Days  
Heating Degree Days 7 24  
Month to date heating degree days 162 236  
Since 1 July heating degree days 1266 1409  
Cooling Degree Days 0 0  
Month to date cooling degree days 0 0  
Year to date cooling degree days 0 0  
Growing Degree Days 6 (Base 50)    
Moisture  
Dew Point 56 °F    
Average Humidity 95    
Maximum Humidity 100    
Minimum Humidity 90    
Precipitation  
Precipitation 0.83 in 0.15 in 1.85 in (1975)
Month to date precipitation 1.86 1.50  
Year to date precipitation 1.86 1.50  
Snow  
Snow 0.00 in 0.00 in 0.50 in (1997)
Month to date snowfall 0.0 0.3  
Since 1 July snowfall T 0.6  
Snow Depth 0.00 in    
Sea Level Pressure  
Sea Level Pressure 29.85 in    
Wind  
Wind Speed 7 mph (ESE)    
Max Wind Speed 14 mph    
Max Gust Speed 20 mph    
Visibility 6 miles    
Events Rain , Thunderstorm    
T = Trace of Precipitation, MM = Missing Value Source: NWS Daily Summary

Daily Weather History Graph

Daily Weather History Graph

Search for Another Location

Airport or City:

Astronomy

Jan. 10, 2012 Rise Set
Actual Time 7:01 AM CST 5:03 PM CST
Civil Twilight 6:34 AM CST 5:30 PM CST
Nautical Twilight 6:03 AM CST 6:01 PM CST
Astronomical Twilight 5:32 AM CST 6:32 PM CST
Moon 6:49 PM CST (1/10) 7:44 AM CST (1/10)
Length of Visible Light 10h 56m
Length of Day
10h 01m
Full, 98% of the Moon is Illuminated
Jan 10
Full
Jan 16
Last Quarter
Jan 23
New
Jan 30
First Quarter
Feb 7
Full

Hourly Weather History & Observations

Time (CST) Temp. Dew Point Humidity Pressure Visibility Wind Dir Wind Speed Gust Speed Precip Events Conditions
12:53 AM 53.1 °F 51.1 °F 93% 30.06 in 6.0 mi North 3.5 mph - 0.02 in   Overcast
1:01 AM 53.6 °F 51.8 °F 94% 30.06 in 6.0 mi Calm Calm - N/A   Overcast
1:53 AM 53.1 °F 51.1 °F 93% 30.06 in 4.0 mi Calm Calm - 0.02 in Rain Light Rain
2:45 AM 51.8 °F 51.8 °F 100% 30.05 in 2.5 mi Calm Calm - 0.03 in Rain Rain
2:53 AM 52.0 °F 51.1 °F 97% 30.05 in 3.0 mi Calm Calm - 0.04 in Rain Light Rain
3:11 AM 53.6 °F 51.8 °F 94% 30.04 in 4.0 mi Calm Calm - 0.00 in   Overcast
3:20 AM 51.8 °F 51.8 °F 100% 30.04 in 3.0 mi NE 3.5 mph - 0.00 in   Overcast
3:53 AM 52.0 °F 51.1 °F 97% 30.02 in 4.0 mi NE 8.1 mph - 0.01 in   Overcast
4:35 AM 51.8 °F 51.8 °F 100% 30.02 in 2.0 mi NE 6.9 mph - 0.01 in Rain Rain
4:41 AM 51.8 °F 51.8 °F 100% 30.01 in 1.8 mi ENE 8.1 mph - 0.03 in Rain Rain
4:43 AM 51.8 °F 51.8 °F 100% 30.01 in 2.0 mi ENE 9.2 mph - 0.03 in Rain Light Rain
4:51 AM 51.8 °F 51.8 °F 100% 30.01 in 2.5 mi NE 8.1 mph - 0.04 in Rain Light Rain
4:53 AM 52.0 °F 51.1 °F 97% 30.01 in 2.5 mi NE 6.9 mph - 0.04 in Rain Light Rain
5:00 AM 51.8 °F 51.8 °F 100% 30.01 in 4.0 mi NE 6.9 mph - 0.00 in   Overcast
5:23 AM 53.6 °F 51.8 °F 94% 30.00 in 5.0 mi NE 9.2 mph - 0.01 in Rain Light Rain
5:53 AM 52.0 °F 51.1 °F 97% 30.01 in 6.0 mi NNE 8.1 mph - 0.01 in   Overcast
6:53 AM 52.0 °F 50.0 °F 93% 30.01 in 6.0 mi NE 10.4 mph - 0.00 in   Overcast
7:53 AM 52.0 °F 51.1 °F 97% 30.00 in 6.0 mi ENE 4.6 mph - N/A   Overcast
8:53 AM 54.0 °F 52.0 °F 93% 29.99 in 4.0 mi ENE 5.8 mph - N/A   Overcast
9:42 AM 53.6 °F 51.8 °F 94% 29.99 in 2.0 mi NE 9.2 mph - 0.01 in Rain Light Rain
9:50 AM 53.6 °F 51.8 °F 94% 29.98 in 3.0 mi ENE 6.9 mph - 0.01 in   Overcast
9:53 AM 54.0 °F 52.0 °F 93% 29.98 in 4.0 mi East 8.1 mph - 0.01 in   Overcast
10:00 AM 53.6 °F 53.6 °F 100% 29.97 in 6.0 mi East 6.9 mph - N/A   Overcast
10:53 AM 57.0 °F 55.0 °F 93% 29.94 in 7.0 mi SE 5.8 mph - N/A   Overcast
11:43 AM 57.2 °F 55.4 °F 94% 29.91 in 5.0 mi NE 8.1 mph - N/A   Overcast
11:53 AM 57.9 °F 55.9 °F 93% 29.90 in 5.0 mi ENE 5.8 mph - N/A   Overcast
12:53 PM 60.1 °F 57.9 °F 93% 29.87 in 10.0 mi East 4.6 mph - N/A   Overcast
1:05 PM 62.6 °F 59.0 °F 88% 29.86 in 10.0 mi East 6.9 mph - N/A   Overcast
1:53 PM 61.0 °F 57.9 °F 90% 29.82 in 10.0 mi East 5.8 mph - N/A   Overcast
2:53 PM 62.1 °F 59.0 °F 90% 29.81 in 10.0 mi ESE 5.8 mph - N/A   Overcast
3:39 PM 62.6 °F 57.2 °F 82% 29.80 in 10.0 mi ESE 6.9 mph - N/A   Overcast
3:49 PM 62.6 °F 57.2 °F 82% 29.81 in 10.0 mi ESE 5.8 mph - N/A   Overcast
3:53 PM 61.0 °F 57.9 °F 90% 29.80 in 10.0 mi ESE 8.1 mph - N/A   Overcast
4:01 PM 60.8 °F 57.2 °F 88% 29.80 in 10.0 mi ESE 8.1 mph - N/A   Overcast
4:53 PM 60.1 °F 57.9 °F 93% 29.78 in 9.0 mi ESE 6.9 mph - 0.02 in   Overcast
5:08 PM 60.8 °F 57.2 °F 88% 29.77 in 10.0 mi ESE 5.8 mph - N/A   Overcast
5:17 PM 60.8 °F 57.2 °F 88% 29.77 in 10.0 mi ESE 5.8 mph - N/A   Overcast
5:53 PM 60.1 °F 57.9 °F 93% 29.75 in 6.0 mi SE 4.6 mph - 0.02 in Rain Light Rain
6:53 PM 60.1 °F 57.9 °F 93% 29.74 in 5.0 mi SSE 9.2 mph - 0.04 in Rain Light Rain
7:15 PM 60.8 °F 59.0 °F 94% 29.74 in 10.0 mi SSE 9.2 mph - 0.00 in   Overcast
7:27 PM 60.8 °F 59.0 °F 94% 29.74 in 9.0 mi SSE 10.4 mph 17.3 mph 0.00 in Rain Light Rain
7:53 PM 61.0 °F 59.0 °F 93% 29.72 in 5.0 mi South 8.1 mph - 0.04 in Rain , Thunderstorm Thunderstorms and Rain
8:09 PM 60.8 °F 59.0 °F 94% 29.72 in 7.0 mi South 6.9 mph - 0.01 in Rain Rain
8:53 PM 61.0 °F 59.0 °F 93% 29.71 in 10.0 mi South 10.4 mph 16.1 mph 0.02 in   Overcast
9:36 PM 60.8 °F 59.0 °F 94% 29.71 in 10.0 mi South 6.9 mph - N/A   Overcast
9:43 PM 60.8 °F 59.0 °F 94% 29.71 in 8.0 mi SSW 6.9 mph - 0.00 in Rain Light Rain
9:53 PM 61.0 °F 59.0 °F 93% 29.70 in 10.0 mi South 8.1 mph - 0.02 in Rain Light Rain
10:04 PM 60.8 °F 59.0 °F 94% 29.71 in 10.0 mi South 10.4 mph - 0.00 in   Overcast
10:29 PM 60.8 °F 59.0 °F 94% 29.69 in 10.0 mi South 6.9 mph - 0.00 in Thunderstorm Thunderstorm
10:37 PM 60.8 °F 59.0 °F 94% 29.68 in 10.0 mi South 9.2 mph - 0.00 in Thunderstorm Thunderstorm
10:50 PM 62.6 °F 59.0 °F 88% 29.67 in 10.0 mi South 9.2 mph - 0.00 in   Overcast
10:53 PM 62.1 °F 59.0 °F 90% 29.67 in 10.0 mi South 8.1 mph - 0.00 in   Overcast
11:08 PM 60.8 °F 59.0 °F 94% 29.67 in 5.0 mi South 9.2 mph - 0.01 in Rain , Thunderstorm Heavy Thunderstorms and Rain
11:25 PM 60.8 °F 59.0 °F 94% 29.65 in 2.0 mi SSW 8.1 mph - 0.13 in Rain Heavy Rain
11:29 PM 60.8 °F 59.0 °F 94% 29.65 in 1.8 mi South 8.1 mph - 0.23 in Rain Heavy Rain
11:34 PM 60.8 °F 59.0 °F 94% 29.65 in 3.0 mi South 10.4 mph 17.3 mph 0.25 in Rain Light Rain
11:42 PM 60.8 °F 59.0 °F 94% 29.64 in 2.0 mi SSW 11.5 mph - 0.36 in Rain , Thunderstorm Heavy Thunderstorms and Rain
11:44 PM 60.8 °F 59.0 °F 94% 29.64 in 1.8 mi SSW 9.2 mph - 0.39 in Rain , Thunderstorm Heavy Thunderstorms and Rain
11:53 PM 60.1 °F 59.0 °F 96% 29.63 in 2.0 mi SW 8.1 mph - 0.52 in Rain , Thunderstorm Heavy Thunderstorms and Rain
11:56 PM 60.8 °F 59.0 °F 94% 29.63 in 3.0 mi SSW 8.1 mph - 0.00 in Rain Light Rain